Semi-3

operational
NORAD ID: 66299 Int'l Des: 2025-248 Owner: UNK Country: UNK
NOTLE

关于 Semi-3

正在加载描述...

实时位置

正在加载3D地球...

即将过境

高度历史

Altitude vs Time

uPlot chart will show altitude changes over time

两行轨道根数

1 66299U 25248G 25355.47531844 .00007384 00000-0 36309-3 0 9995
2 66299 45.4026 352.8713 0003047 118.5504 241.5689 15.18653294 7480
Epoch: Dec 21, 2025 • Age: 11 hours

当前状态

高度 526.2 km
速度 7.60 km/s
星下点 -45.11°S, 151.56°W
发射日期 Nov 2, 2025
运行时间 0.1 years
类型 other

技术详情

分类 Payload
质量 12.00 kg
干质量 12.00 kg
总质量 12.00 kg
长度 0.30 m
直径 0.20 m
跨度 0.30 m
形状 Box
制造商 UNK
平台类型 Cubesat 6U
阶段状态 In Orbit
所有者/国家 UNK/UNK

大型星座

Loading constellations...